Regional Weather Roundup
Issued by NWS

Home | Current Version | Previous Version | Graphics & Text | Print | Product List | Glossary On
Versions: 1 2 3 4 5 6 7 8 9 10 11 12 13 14 15 16 17 18 19 20 21 22 23 24 25 26 27 28 29 30 31 32 33 34 35 36 37 38 39 40 41 42 43 44 45 46 47 48 49 50
000
ASUS43 KMKX 261111
RWRWI

WISCONSIN REGIONAL WEATHER ROUNDUP
NATIONAL WEATHER SERVICE MILWAUKEE/SULLIVAN WI
600 AM CDT MON SEP 26 2016

NOTE: "FAIR" INDICATES FEW OR NO CLOUDS BELOW 12,000 FEET WITH NO
SIGNIFICANT WEATHER AND/OR OBSTRUCTIONS TO VISIBILITY.

WIZ001-002-006>008-014>016-023>028-261200-
NORTHWEST WISCONSIN

CITY           SKY/WX    TMP DP  RH WIND       PRES   REMARKS
SUPERIOR ARPT  CLOUDY    50  48  93 W14G20    29.73S
ASHLAND        CLOUDY    50  48  93 W15G26    29.69S
HAYWARD        RAIN      49  46  90 W9G21     29.78R
SIREN          CLOUDY    51  44  76 W16       29.83S
CUMBERLAND     CLOUDY    50  43  76 W15       29.84S
RICE LAKE      CLOUDY    51  44  76 SW12      29.85F
CHETEK         NOT AVBL
LADYSMITH      CLOUDY    51  45  80 W16G24    29.83R
EAU CLAIRE     CLEAR     50  44  80 SW14      29.87S
MENOMONIE      CLEAR     51  44  78 SW9       29.88S
NEW RICHMOND   MOCLDY    50  41  71 W17       29.89R
OSCEOLA        PTCLDY    52  43  71 W16G23    29.91S
$$

WIZ003>005-009-010-017-018-261200-
NORTH CENTRAL WISCONSIN

CITY           SKY/WX    TMP DP  RH WIND       PRES   REMARKS
MANITOWISH WTR NOT AVBL
ARBOR VITAE    CLOUDY    49  47  93 W12G20    29.72F
WOODRUFF       CLOUDY    49  47  93 W12G20    29.72F
RHINELANDER    LGT RAIN  49  47  93 W13G28    29.75F
EAGLE RIVER    DRIZZLE   48  47  96 W13G22    29.71F
LAND O LAKES   DRIZZLE   48  47  93 W8G17     29.71F
PHILLIPS       DRIZZLE   47  47  97 W8G18     29.76S
TOMAHAWK       CLOUDY    48  44  88 W7        29.78R
MEDFORD        CLOUDY    50  46  84 W15G23    29.81R
MERRILL        CLOUDY    51  45  81 W16G24    29.79F
$$

WIZ029-030-035-036-043>047-261200-
CENTRAL WISCONSIN

CITY           SKY/WX    TMP DP  RH WIND       PRES   REMARKS
WAUSAU         CLOUDY    51  44  77 W14G29    29.80S
MOSINEE        CLOUDY    52  45  76 W13G20    29.83F
MARSHFIELD     MOCLDY    51  43  74 W14G24    29.84S
STEVENS POINT  CLOUDY    51  43  74 W15       29.84F
WAUPACA        PTCLDY    55  46  71 W14G20    29.85S
WAUTOMA        PTCLDY    52  47  83 SW10      29.89R
WISC RAPIDS    MOCLDY    52  46  80 W12G23    29.88S
CAMP DOUGLAS   CLEAR     52  44  75 W15G22    29.91S
$$

WIZ011>013-019>022-031-037>040-048>050-261200-
NORTHEAST WISCONSIN

CITY           SKY/WX    TMP DP  RH WIND       PRES   REMARKS
ANTIGO         CLOUDY    49  44  83 W13G22    29.78F
SHAWANO        CLOUDY    52  45  75 SW9       29.81S
OCONTO         NOT AVBL
STURGEON BAY   CLOUDY    54  44  69 W15G24    29.80S
GREEN BAY      CLOUDY    53  46  77 SW10      29.83S
MANITOWOC      CLOUDY    57  44  62 MISG      29.86S
APPLETON       MOCLDY    52  43  71 W15       29.84S
CLINTONVILLE   NOT AVBL
OSHKOSH        PTCLDY    54  45  71 W6        29.87S
$$

WIZ032>034-041-042-053>061-261200-
SOUTHWEST WISCONSIN

CITY           SKY/WX    TMP DP  RH WIND       PRES   REMARKS
LA CROSSE      CLEAR     55  44  66 W10       29.95R
SPARTA         CLEAR     50  46  84 SW3       29.94R
VIROQUA        CLEAR     49  43  81 W8        29.96R
BOSCOBEL       CLEAR     52  45  77 SW5       29.99R
PRAIRIE DU CHI CLEAR     52  42  68 W9        30.00R
PLATTEVILLE    CLEAR     51  46  84 W8        30.00S
$$

WIZ056-057-062-063-064-067-068-261200-
SOUTH CENTRAL WISCONSIN

CITY           SKY/WX    TMP DP  RH WIND       PRES   REMARKS
REEDSBURG      NOT AVBL
BARABOO/DELLS  CLEAR     51  44  76 W8        29.94R
LONE ROCK      CLEAR     52  46  80 SW5       29.97S
MINERAL POINT  CLEAR     50  46  87 W8        29.98S
MADISON        PTCLDY    54  47  77 VRB5      29.95R
MIDDLETON      PTCLDY    53  47  81 W8        29.97R
WATERTOWN      PTCLDY    54  50  87 W9        29.94R
MONROE         CLEAR     52  45  76 SW14      29.98S
JANESVILLE     PTCLDY    55  48  76 W8        29.97R
$$

WIZ051-052-058>065-066-070>072-261200-
SOUTHEAST WISCONSIN

CITY           SKY/WX    TMP DP  RH WIND       PRES   REMARKS
MILWAUKEE      CLOUDY    59  48  67 W9        29.93F
WAUKESHA       CLEAR     54  48  82 W9        29.94F
MILWAUKEE/TIMM CLOUDY    55  46  71 W7        29.93S
RACINE         CLOUDY    57  49  74 W6        29.96R
BURLINGTON     CLOUDY    55  49  80 SW10      29.95S
KENOSHA        CLOUDY    57  49  74 W9        29.95S
FOND DU LAC    CLOUDY    54  47  77 SW10      29.90S
SHEBOYGAN      CLOUDY    56  46  69 W14G23    29.88S
WEST BEND      CLOUDY    54  48  82 W10       29.91S
JUNEAU         PTCLDY    52  48  86 SW13      29.93S
$$

LSZ147-162-261200-
LAKE SUPERIOR

STATION/POSITION TIME  TEMP    WIND        PRES    WAVE
                       AIR SEA DIR/SP/G            HT/PER
                 (UTC) (F)     (DEG/KT/KT) (MB)    (FT/S)
W MID LAKE BUOY  1050   54 59  240/ 25/ 29 1000.2F   7/ 7
DEVILS ISLAND    1000   52     230/ 27/ 34 1003.0F
SAXON HARBOR     1000   52     220/  9/ 15 1005.1
$$

LMZ867-665-643>646-261200-
LAKE MICHIGAN

STATION/POSITION TIME  TEMP    WIND        PRES    WAVE
                       AIR SEA DIR/SP/G            HT/PER
                 (UTC) (F)     (DEG/KT/KT) (MB)    (FT/S)
CHAMBERS ISLAND  1000   57     220/ 11/ 20 1007.1F
N MID LAKE BUOY  1050   60 67  240/ 23/ 29 1005.7F   5/ 6
NORTHPORT PIER   1000   58     250/  3/ 12 1007.5S
KEWAUNEE LAKESHO 1000   57     260/ 10/ 17 1009.6R
SHEBOYGAN LAKESH 1100   58     250/ 13/ 16 1011.4R
PORT WASHINGTON  1000   59     260/  5/ 11 1013.5
ATWATER BUOY     1000   59 53  250/ 10/ 14 1013.5R
MILWAUKEE LAKESH 1010   60     260/ 10/ 14   N/A
S MID LAKE BUOY  1050   63 71  290/ 19/ 25 1012.7R   5/ 5
KENOSHA   LAKESH 1100   60     260/ 11/ 13 1013.9S
$$

TC  - TEMPERATURE IN CELSIUS
VSB - VISIBILITY IN STATUTE MILES
WCI - WIND CHILL INDEX
HX  - HEAT INDEX




USA.gov is the U.S. government's official web portal to all federal, state and local government web resources and services.